Regional Weather Roundup
Issued by NWS

Home | Current Version | Previous Version | Graphics & Text | Print | Product List | Glossary On
Versions: 1 2 3 4 5 6 7 8 9 10 11 12 13 14 15 16 17 18 19 20 21 22 23 24 25 26 27 28 29 30 31 32 33 34 35 36 37 38 39 40 41 42 43 44 45 46 47 48 49 50
820
ASUS44 KJAN 260103
RWRMS

MISSISSIPPI HOURLY WEATHER ROUNDUP
NATIONAL WEATHER SERVICE JACKSON MS
800 PM CDT SAT OCT 25 2014

NOTE: "FAIR: INDICATES FEW OR NO CLOUDS BELOW 12,000 FEET WITH NO
SIGNIFICANT WEATHER AND/OR OBSTRUCTIONS TO VISIBILITY.

MSZ001>002-007>008-010>013-018>021-025>028-034>036-260200-
NORTHWEST MISSISSIPPI

CITY           SKY/WX    TMP DP  RH WIND       PRES   REMARKS
CLARKSDALE     FAIR      72  64  78 SW5       30.05R
CLEVELAND      FAIR      69  65  85 SW6       30.04S
GREENWOOD      CLEAR     65  62  90 S3        30.05R
GREENVILLE     CLEAR     69  62  78 CALM      30.05R
GRENADA          N/A    N/A N/A N/A MISG        N/A
OLIVE BRANCH   CLEAR     68  68 100 CALM      30.04R
OXFORD         FAIR      63  63 100 CALM      30.07R
TUNICA         PTCLDY    68  61  77 CALM      30.04S
$$

MSZ003>006-009-014>017-022>024-029>033-037>039-260200-
NORTHEAST MISSISSIPPI

CITY           SKY/WX    TMP DP  RH WIND       PRES   REMARKS
COLUMBUS AFB   CLEAR     64  63  94 CALM      30.06R
CORINTH        FAIR      66  63  88 CALM      30.04R
GOLDN TRIANGLE CLEAR     66  59  77 CALM      30.05R
STARKVILLE     FAIR      63  61  94 CALM      30.06S
TUPELO         CLEAR     68  63  84 CALM      30.05R
$$

MSZ040-058-260200-
CENTRAL MISSISSIPPI

CITY           SKY/WX    TMP DP  RH WIND       PRES   REMARKS
JACKSON INTL   CLEAR     64  59  83 CALM      30.08R
JACKSON HAWKNS CLEAR     67  61  81 CALM      30.08R HAZE
MERIDIAN KEY   CLEAR     63  60  90 CALM      30.07R
MERIDIAN NAS   CLEAR     65  60  84 CALM      30.07R
RAYMOND        FAIR      63  57  82 CALM      30.08R
VICKSBURG      CLEAR     63  59  87 W3        30.07R
$$

MSZ059>079-260200-
SOUTH MISSISSIPPI

CITY           SKY/WX    TMP DP  RH WIND       PRES   REMARKS
BROOKHAVEN     FAIR      64  61  88 CALM      30.11R
COLUMBIA         N/A     63  59  88 MISG        N/A
HATTIESBURG    CLEAR     65  62  90 CALM      30.08R
MCCOMB         CLEAR     68  57  68 NW3       30.09R
NATCHEZ        CLEAR     64  59  82 CALM      30.10S
PINE BELT      CLEAR     63  57  82 CALM      30.09S
$$

MSZ080>082-260200-
COASTAL MISSISSIPPI

CITY           SKY/WX    TMP DP  RH WIND       PRES   REMARKS
BAY ST LOUIS   CLEAR     66  57  72 W5        30.08R
BILOXI         CLEAR     67  62  81 NW1       30.07R
PASCAGOULA     CLEAR     59  57  93 CALM      30.07R
GULFPORT       CLEAR     65  59  81 CALM      30.07R
$$



USA.gov is the U.S. government's official web portal to all federal, state and local government web resources and services.